Retour au catalogue

ICEYE-X25

ActifSciencePO
NORAD 56963·PAYLOAD·🇫🇮 Finland

Lancé Jun 12, 2023 depuis Vandenberg Space Force Base

Loading…

Prochains Passages (prochaines 24 heures)

TLE

FraisSource: Space-Track

Époque: Sep 14, 2026, 21:53 UTC

1 56963U 23084AH  26257.91213532  .00035495  00000-0  34618-3 0  9995
2 56963  97.5982  50.8522 0002857 342.8925  17.2238 15.66145061181994

Suivez ICEYE-X25 en temps réel avec AllMySat

Download on the App Store